| time (UTC) | temp F | wind direction | speed MPH | gust MPH | rain 1hr in | rain 24hr in | rain mn in | humidity % | barometer mb |
| 20260508022853 | 62 | 270 | 2.0 | 6.0 | 0.00 | 0.00 | 0.00 | 86 | 1014.2 |
| 20260508022353 | 62 | 344 | 3.0 | 8.0 | 0.00 | 0.00 | 0.00 | 86 | 1014.0 |
| 20260508021852 | 62 | 326 | 5.0 | 8.0 | 0.00 | 0.00 | 0.00 | 85 | 1014.1 |
| 20260508020852 | 63 | 332 | 3.0 | 8.0 | 0.00 | 0.00 | 0.00 | 85 | 1014.0 |
| 20260508020353 | 63 | 343 | 5.0 | 12.0 | 0.00 | 0.00 | 0.00 | 85 | 1014.0 |
| 20260508015852 | 63 | 338 | 5.0 | 9.0 | 0.00 | 0.00 | 0.00 | 85 | 1014.0 |
| 20260508015353 | 63 | 329 | 5.0 | 10.0 | 0.00 | 0.00 | 0.00 | 83 | 1013.9 |
| 20260508014853 | 64 | 306 | 3.0 | 10.0 | 0.00 | 0.00 | 0.00 | 82 | 1013.9 |
| 20260508014353 | 64 | 328 | 4.0 | 10.0 | 0.00 | 0.00 | 0.00 | 81 | 1013.8 |
| 20260508013852 | 64 | 305 | 3.0 | 8.0 | 0.00 | 0.00 | 0.00 | 82 | 1013.8 |
| 20260508013352 | 64 | 343 | 3.0 | 9.0 | 0.00 | 0.00 | 0.00 | 82 | 1013.8 |
| 20260508012853 | 64 | 353 | 4.0 | 9.0 | 0.00 | 0.00 | 0.00 | 82 | 1013.8 |
| 20260508012352 | 64 | 341 | 5.0 | 10.0 | 0.00 | 0.00 | 0.00 | 82 | 1013.8 |
| 20260508011852 | 64 | 350 | 5.0 | 10.0 | 0.00 | 0.00 | 0.00 | 83 | 1013.8 |
| 20260508011353 | 64 | 0 | 6.0 | 12.0 | 0.00 | 0.00 | 0.00 | 83 | 1013.7 |
| 20260508010852 | 64 | 345 | 3.0 | 12.0 | 0.00 | 0.00 | 0.00 | 83 | 1013.7 |
| 20260508010352 | 64 | 331 | 5.0 | 9.0 | 0.00 | 0.00 | 0.00 | 83 | 1013.7 |
| 20260508005852 | 64 | 345 | 5.0 | 13.0 | 0.00 | 0.00 | 0.00 | 83 | 1013.7 |
| 20260508005353 | 64 | 345 | 5.0 | 14.0 | 0.00 | 0.00 | 0.00 | 83 | 1013.7 |
| 20260508004852 | 64 | 345 | 6.0 | 12.0 | 0.00 | 0.00 | 0.00 | 82 | 1013.8 |
| 20260508004352 | 64 | 356 | 4.0 | 10.0 | 0.00 | 0.00 | 0.00 | 83 | 1013.7 |
| 20260508003852 | 64 | 339 | 5.0 | 12.0 | 0.00 | 0.00 | 0.00 | 84 | 1013.8 |
| 20260508002852 | 64 | 345 | 7.0 | 13.0 | 0.00 | 0.00 | 0.00 | 83 | 1013.8 |
| 20260508002352 | 64 | 358 | 6.0 | 14.0 | 0.00 | 0.00 | 0.00 | 83 | 1013.8 |
| 20260508001353 | 64 | 341 | 6.0 | 13.0 | 0.00 | 0.00 | 0.00 | 83 | 1013.9 |
| 20260508000853 | 64 | 350 | 7.0 | 12.0 | 0.00 | 0.00 | 0.00 | 83 | 1014.0 |
| 20260507235852 | 64 | 314 | 5.0 | 10.0 | 0.00 | 0.00 | 0.00 | 82 | 1013.9 |
| 20260507235353 | 64 | 343 | 5.0 | 12.0 | 0.00 | 0.00 | 0.00 | 83 | 1014.0 |
| 20260507234853 | 64 | 267 | 5.0 | 12.0 | 0.00 | 0.00 | 0.00 | 82 | 1014.0 |
| 20260507234353 | 64 | 328 | 6.0 | 12.0 | 0.00 | 0.00 | 0.00 | 83 | 1014.0 |
| 20260507233852 | 64 | 307 | 5.0 | 12.0 | 0.00 | 0.00 | 0.00 | 84 | 1014.1 |
| 20260507233352 | 64 | 338 | 4.0 | 12.0 | 0.00 | 0.00 | 0.00 | 84 | 1014.2 |
| 20260507232852 | 64 | 320 | 5.0 | 12.0 | 0.00 | 0.00 | 0.00 | 84 | 1014.2 |
| 20260507232352 | 64 | 292 | 5.0 | 12.0 | 0.00 | 0.00 | 0.00 | 84 | 1014.2 |
| 20260507231852 | 64 | 310 | 6.0 | 12.0 | 0.00 | 0.00 | 0.00 | 83 | 1014.2 |
| 20260507231352 | 65 | 294 | 6.0 | 9.0 | 0.00 | 0.00 | 0.00 | 82 | 1014.2 |
| 20260507230853 | 65 | 257 | 4.0 | 12.0 | 0.00 | 0.00 | 0.00 | 82 | 1014.2 |
| 20260507230353 | 65 | 272 | 5.0 | 12.0 | 0.00 | 0.00 | 0.00 | 82 | 1014.2 |
| 20260507225352 | 65 | 300 | 6.0 | 13.0 | 0.00 | 0.00 | 0.00 | 80 | 1014.1 |
| 20260507224852 | 66 | 289 | 5.0 | 12.0 | 0.00 | 0.00 | 0.00 | 80 | 1014.2 |
| 20260507224352 | 65 | 298 | 6.0 | 13.0 | 0.00 | 0.00 | 0.00 | 80 | 1014.2 |
| 20260507223853 | 66 | 329 | 6.0 | 13.0 | 0.00 | 0.00 | 0.00 | 80 | 1014.3 |
| 20260507223353 | 65 | 322 | 6.0 | 12.0 | 0.00 | 0.00 | 0.00 | 81 | 1014.3 |
| 20260507222853 | 65 | 295 | 6.0 | 12.0 | 0.00 | 0.00 | 0.00 | 80 | 1014.5 |
| 20260507222353 | 65 | 285 | 6.0 | 12.0 | 0.00 | 0.00 | 0.00 | 80 | 1014.5 |
| 20260507221853 | 65 | 297 | 6.0 | 13.0 | 0.00 | 0.00 | 0.00 | 80 | 1014.6 |
| 20260507221352 | 65 | 287 | 6.0 | 15.0 | 0.00 | 0.00 | 0.00 | 80 | 1014.6 |
| 20260507220352 | 66 | 286 | 6.0 | 10.0 | 0.00 | 0.00 | 0.00 | 80 | 1014.8 |
| 20260507215852 | 65 | 318 | 8.0 | 14.0 | 0.00 | 0.00 | 0.00 | 80 | 1014.7 |
| 20260507215353 | 65 | 293 | 9.0 | 15.0 | 0.00 | 0.00 | 0.00 | 80 | 1014.7 |
| 20260507214852 | 65 | 274 | 9.0 | 16.0 | 0.00 | 0.00 | 0.00 | 79 | 1014.7 |
| 20260507214353 | 66 | 263 | 7.0 | 15.0 | 0.00 | 0.00 | 0.00 | 79 | 1014.7 |
| 20260507213852 | 66 | 280 | 6.0 | 13.0 | 0.00 | 0.00 | 0.00 | 79 | 1014.7 |
| 20260507212853 | 66 | 308 | 7.0 | 17.0 | 0.00 | 0.00 | 0.00 | 79 | 1014.8 |
| 20260507212352 | 66 | 287 | 7.0 | 14.0 | 0.00 | 0.00 | 0.00 | 79 | 1014.7 |
| 20260507211852 | 66 | 307 | 7.0 | 13.0 | 0.00 | 0.00 | 0.00 | 80 | 1014.7 |
| 20260507211353 | 66 | 332 | 7.0 | 15.0 | 0.00 | 0.00 | 0.00 | 79 | 1014.7 |
| 20260507210852 | 66 | 312 | 8.0 | 17.0 | 0.00 | 0.00 | 0.00 | 79 | 1014.9 |
| 20260507210352 | 66 | 321 | 5.0 | 13.0 | 0.00 | 0.00 | 0.00 | 80 | 1015.0 |
| 20260507205353 | 65 | 277 | 7.0 | 14.0 | 0.00 | 0.00 | 0.00 | 81 | 1015.1 |
| 20260507204852 | 65 | 330 | 7.0 | 14.0 | 0.00 | 0.00 | 0.00 | 80 | 1015.1 |
| 20260507204352 | 66 | 330 | 8.0 | 14.0 | 0.00 | 0.00 | 0.00 | 80 | 1015.1 |
| 20260507203853 | 66 | 314 | 6.0 | 14.0 | 0.00 | 0.00 | 0.00 | 81 | 1015.2 |
| 20260507203352 | 65 | 312 | 7.0 | 15.0 | 0.00 | 0.00 | 0.00 | 81 | 1015.2 |
| 20260507202852 | 65 | 330 | 9.0 | 17.0 | 0.00 | 0.00 | 0.00 | 81 | 1015.2 |
| 20260507201853 | 65 | 335 | 9.0 | 13.0 | 0.00 | 0.00 | 0.00 | 80 | 1015.3 |
| 20260507201352 | 65 | 324 | 6.0 | 16.0 | 0.00 | 0.00 | 0.00 | 81 | 1015.3 |
| 20260507200852 | 65 | 319 | 7.0 | 13.0 | 0.00 | 0.00 | 0.00 | 81 | 1015.3 |
| 20260507195852 | 65 | 336 | 9.0 | 15.0 | 0.00 | 0.00 | 0.00 | 81 | 1015.5 |
| 20260507194852 | 65 | 344 | 6.0 | 13.0 | 0.00 | 0.00 | 0.00 | 81 | 1015.5 |
| 20260507194352 | 65 | 344 | 8.0 | 14.0 | 0.00 | 0.00 | 0.00 | 81 | 1015.6 |
| 20260507193852 | 65 | 327 | 7.0 | 15.0 | 0.00 | 0.00 | 0.00 | 81 | 1015.6 |
| 20260507192852 | 65 | 334 | 7.0 | 14.0 | 0.00 | 0.00 | 0.00 | 81 | 1015.7 |
| 20260507192352 | 65 | 317 | 7.0 | 16.0 | 0.00 | 0.00 | 0.00 | 82 | 1015.7 |
| 20260507191852 | 65 | 341 | 8.0 | 13.0 | 0.00 | 0.00 | 0.00 | 81 | 1015.7 |
| 20260507190852 | 65 | 349 | 8.0 | 13.0 | 0.00 | 0.00 | 0.00 | 80 | 1015.9 |
| 20260507190352 | 65 | 344 | 6.0 | 12.0 | 0.00 | 0.00 | 0.00 | 82 | 1015.8 |
| 20260507185852 | 64 | 337 | 6.0 | 12.0 | 0.00 | 0.00 | 0.00 | 82 | 1015.9 |
| 20260507184852 | 64 | 342 | 6.0 | 13.0 | 0.00 | 0.00 | 0.00 | 81 | 1016.0 |
| 20260507184352 | 64 | 328 | 6.0 | 12.0 | 0.00 | 0.00 | 0.00 | 82 | 1016.0 |
| 20260507183853 | 64 | 325 | 7.0 | 12.0 | 0.00 | 0.00 | 0.00 | 82 | 1016.0 |
| 20260507182852 | 64 | 334 | 7.0 | 12.0 | 0.00 | 0.00 | 0.00 | 82 | 1016.1 |
| 20260507182352 | 64 | 318 | 6.0 | 12.0 | 0.00 | 0.00 | 0.00 | 82 | 1016.0 |
| 20260507181852 | 64 | 303 | 7.0 | 12.0 | 0.00 | 0.00 | 0.00 | 82 | 1016.1 |
| 20260507181353 | 64 | 277 | 6.0 | 12.0 | 0.00 | 0.00 | 0.00 | 82 | 1016.1 |
| 20260507180852 | 64 | 324 | 6.0 | 12.0 | 0.00 | 0.00 | 0.00 | 82 | 1016.2 |
| 20260507180352 | 64 | 331 | 6.0 | 12.0 | 0.00 | 0.00 | 0.00 | 81 | 1016.3 |
| 20260507175852 | 64 | 323 | 5.0 | 9.0 | 0.00 | 0.00 | 0.00 | 82 | 1016.2 |
| 20260507175352 | 64 | 335 | 5.0 | 12.0 | 0.00 | 0.00 | 0.00 | 82 | 1016.2 |
| 20260507174852 | 64 | 350 | 7.0 | 13.0 | 0.00 | 0.00 | 0.00 | 82 | 1016.2 |
| 20260507174353 | 64 | 346 | 6.0 | 9.0 | 0.00 | 0.00 | 0.00 | 82 | 1016.2 |
| 20260507173352 | 64 | 352 | 5.0 | 12.0 | 0.00 | 0.00 | 0.00 | 83 | 1016.3 |
| 20260507172352 | 64 | 355 | 5.0 | 10.0 | 0.00 | 0.00 | 0.00 | 83 | 1016.3 |
| 20260507171853 | 64 | 353 | 5.0 | 9.0 | 0.00 | 0.00 | 0.00 | 83 | 1016.4 |
| 20260507171352 | 63 | 329 | 5.0 | 9.0 | 0.00 | 0.00 | 0.00 | 83 | 1016.4 |
| 20260507170852 | 63 | 301 | 5.0 | 10.0 | 0.00 | 0.00 | 0.00 | 84 | 1016.3 |
| 20260507165852 | 63 | 313 | 5.0 | 10.0 | 0.00 | 0.00 | 0.00 | 84 | 1016.4 |
| 20260507165352 | 63 | 347 | 5.0 | 8.0 | 0.00 | 0.00 | 0.00 | 84 | 1016.4 |
| 20260507164852 | 63 | 355 | 4.0 | 8.0 | 0.00 | 0.00 | 0.00 | 85 | 1016.4 |
| 20260507164352 | 62 | 351 | 5.0 | 12.0 | 0.00 | 0.00 | 0.00 | 85 | 1016.4 |
| 20260507163852 | 62 | 349 | 5.0 | 8.0 | 0.00 | 0.00 | 0.00 | 85 | 1016.4 |
| 20260507163352 | 62 | 339 | 5.0 | 8.0 | 0.00 | 0.00 | 0.00 | 85 | 1016.5 |
| 20260507162852 | 62 | 348 | 4.0 | 8.0 | 0.00 | 0.00 | 0.00 | 86 | 1016.5 |
| 20260507162352 | 62 | 335 | 3.0 | 7.0 | 0.00 | 0.00 | 0.00 | 86 | 1016.4 |
| 20260507161852 | 62 | 358 | 5.0 | 8.0 | 0.00 | 0.00 | 0.00 | 86 | 1016.4 |
| 20260507161352 | 62 | 325 | 4.0 | 8.0 | 0.00 | 0.00 | 0.00 | 86 | 1016.4 |
| 20260507160353 | 62 | 338 | 5.0 | 9.0 | 0.00 | 0.00 | 0.00 | 86 | 1016.5 |
| 20260507155852 | 62 | 347 | 3.0 | 8.0 | 0.00 | 0.00 | 0.00 | 87 | 1016.5 |
| 20260507155352 | 62 | 345 | 4.0 | 8.0 | 0.00 | 0.00 | 0.00 | 86 | 1016.4 |
| 20260507154852 | 61 | 335 | 5.0 | 10.0 | 0.00 | 0.00 | 0.00 | 86 | 1016.4 |
| 20260507154352 | 62 | 330 | 3.0 | 6.0 | 0.00 | 0.00 | 0.00 | 87 | 1016.5 |
| 20260507153353 | 61 | 344 | 3.0 | 8.0 | 0.00 | 0.00 | 0.00 | 88 | 1016.4 |
| 20260507152853 | 61 | 353 | 4.0 | 6.0 | 0.00 | 0.00 | 0.00 | 88 | 1016.4 |
| 20260507152353 | 61 | 330 | 3.0 | 7.0 | 0.00 | 0.00 | 0.00 | 88 | 1016.4 |
| 20260507151852 | 61 | 342 | 3.0 | 8.0 | 0.00 | 0.00 | 0.00 | 88 | 1016.5 |
| 20260507151352 | 61 | 329 | 3.0 | 6.0 | 0.00 | 0.00 | 0.00 | 89 | 1016.6 |
| 20260507150852 | 61 | 313 | 2.0 | 7.0 | 0.00 | 0.00 | 0.00 | 88 | 1016.5 |
| 20260507150352 | 61 | 349 | 5.0 | 7.0 | 0.00 | 0.00 | 0.00 | 89 | 1016.5 |
| 20260507145852 | 61 | 315 | 2.0 | 6.0 | 0.00 | 0.00 | 0.00 | 90 | 1016.5 |
| 20260507145352 | 60 | 327 | 3.0 | 5.0 | 0.00 | 0.00 | 0.00 | 89 | 1016.4 |
| 20260507144352 | 60 | 313 | 3.0 | 5.0 | 0.00 | 0.00 | 0.00 | 90 | 1016.4 |
| 20260507143852 | 60 | 293 | 2.0 | 6.0 | 0.00 | 0.00 | 0.00 | 90 | 1016.4 |
| 20260507143352 | 60 | 313 | 2.0 | 5.0 | 0.00 | 0.00 | 0.00 | 90 | 1016.4 |
| 20260507142852 | 59 | 316 | 2.0 | 3.0 | 0.00 | 0.00 | 0.00 | 91 | 1016.3 |
| 20260507142352 | 59 | 275 | 2.0 | 3.0 | 0.00 | 0.00 | 0.00 | 90 | 1016.3 |
| 20260507141352 | 58 | 264 | 2.0 | 3.0 | 0.00 | 0.00 | 0.00 | 91 | 1016.2 |
| 20260507140852 | 58 | 251 | 2.0 | 3.0 | 0.00 | 0.00 | 0.00 | 91 | 1016.1 |
| 20260507140352 | 57 | 242 | 2.0 | 3.0 | 0.00 | 0.00 | 0.00 | 92 | 1016.1 |
| 20260507135852 | 57 | 247 | 1.0 | 2.0 | 0.00 | 0.00 | 0.00 | 92 | 1016.1 |
| 20260507135352 | 56 | 190 | 0.0 | 0.0 | 0.00 | 0.00 | 0.00 | 92 | 1016.1 |
| 20260507134853 | 56 | 190 | 0.0 | 0.0 | 0.00 | 0.00 | 0.00 | 91 | 1016.0 |
| 20260507134352 | 56 | 190 | 0.0 | 0.0 | 0.00 | 0.00 | 0.00 | 92 | 1015.9 |
| 20260507133352 | 55 | 190 | 1.0 | 3.0 | 0.00 | 0.00 | 0.00 | 92 | 1015.9 |
| 20260507132852 | 55 | 190 | 1.0 | 2.0 | 0.00 | 0.00 | 0.00 | 91 | 1015.8 |
| 20260507132352 | 55 | 190 | 1.0 | 2.0 | 0.00 | 0.00 | 0.00 | 91 | 1015.7 |
| 20260507131852 | 55 | 190 | 1.0 | 3.0 | 0.00 | 0.00 | 0.00 | 91 | 1015.7 |
| 20260507131352 | 55 | 190 | 1.0 | 2.0 | 0.00 | 0.00 | 0.00 | 91 | 1015.7 |
| 20260507130852 | 55 | 190 | 1.0 | 2.0 | 0.00 | 0.00 | 0.00 | 91 | 1015.7 |
| 20260507130352 | 55 | 190 | 1.0 | 2.0 | 0.00 | 0.00 | 0.00 | 91 | 1015.6 |
| 20260507125852 | 56 | 190 | 1.0 | 3.0 | 0.00 | 0.00 | 0.00 | 91 | 1015.5 |
| 20260507124852 | 56 | 190 | 0.0 | 2.0 | 0.00 | 0.00 | 0.00 | 92 | 1015.4 |
| 20260507124352 | 56 | 190 | 1.0 | 2.0 | 0.00 | 0.00 | 0.00 | 91 | 1015.5 |
| 20260507123852 | 56 | 190 | 1.0 | 2.0 | 0.00 | 0.00 | 0.00 | 91 | 1015.4 |
| 20260507123352 | 56 | 190 | 1.0 | 2.0 | 0.00 | 0.00 | 0.00 | 92 | 1015.5 |
| 20260507122851 | 55 | 190 | 1.0 | 2.0 | 0.00 | 0.00 | 0.00 | 91 | 1015.4 |
| 20260507122352 | 55 | 190 | 1.0 | 3.0 | 0.00 | 0.00 | 0.00 | 90 | 1015.4 |
| 20260507121852 | 55 | 190 | 1.0 | 2.0 | 0.00 | 0.00 | 0.00 | 90 | 1015.5 |
| 20260507121352 | 55 | 190 | 1.0 | 2.0 | 0.00 | 0.00 | 0.00 | 90 | 1015.4 |
| 20260507120852 | 55 | 190 | 1.0 | 2.0 | 0.00 | 0.00 | 0.00 | 90 | 1015.4 |
| 20260507120352 | 55 | 180 | 1.0 | 2.0 | 0.00 | 0.00 | 0.00 | 90 | 1015.5 |
| 20260507115852 | 55 | 182 | 1.0 | 2.0 | 0.00 | 0.00 | 0.00 | 90 | 1015.4 |
| 20260507115352 | 55 | 184 | 1.0 | 2.0 | 0.00 | 0.00 | 0.00 | 89 | 1015.4 |
| 20260507114852 | 56 | 184 | 1.0 | 2.0 | 0.00 | 0.00 | 0.00 | 90 | 1015.4 |
| 20260507114353 | 56 | 186 | 1.0 | 2.0 | 0.00 | 0.00 | 0.00 | 90 | 1015.5 |
| 20260507113852 | 56 | 237 | 1.0 | 2.0 | 0.00 | 0.00 | 0.00 | 89 | 1015.5 |
| 20260507113352 | 56 | 237 | 1.0 | 1.0 | 0.00 | 0.00 | 0.00 | 89 | 1015.4 |
| 20260507112852 | 56 | 237 | 1.0 | 2.0 | 0.00 | 0.00 | 0.00 | 89 | 1015.4 |
| 20260507112352 | 56 | 237 | 1.0 | 2.0 | 0.00 | 0.00 | 0.00 | 89 | 1015.5 |
| 20260507111852 | 57 | 237 | 0.0 | 1.0 | 0.00 | 0.00 | 0.00 | 89 | 1015.5 |
| 20260507111353 | 57 | 237 | 0.0 | 1.0 | 0.00 | 0.00 | 0.00 | 89 | 1015.5 |
| 20260507110852 | 57 | 237 | 1.0 | 2.0 | 0.00 | 0.00 | 0.00 | 89 | 1015.5 |
| 20260507110352 | 57 | 237 | 0.0 | 1.0 | 0.00 | 0.00 | 0.00 | 89 | 1015.6 |
| 20260507105853 | 57 | 194 | 0.0 | 2.0 | 0.00 | 0.00 | 0.00 | 89 | 1015.6 |
| 20260507105351 | 57 | 188 | 0.0 | 0.0 | 0.00 | 0.00 | 0.00 | 89 | 1015.7 |
| 20260507104852 | 57 | 188 | 0.0 | 0.0 | 0.00 | 0.00 | 0.00 | 89 | 1015.7 |
| 20260507104352 | 57 | 188 | 0.0 | 0.0 | 0.00 | 0.00 | 0.00 | 89 | 1015.8 |
| 20260507103852 | 57 | 188 | 0.0 | 0.0 | 0.00 | 0.00 | 0.00 | 89 | 1015.8 |
| 20260507103352 | 57 | 188 | 0.0 | 0.0 | 0.00 | 0.00 | 0.00 | 89 | 1015.9 |
| 20260507102852 | 57 | 188 | 0.0 | 0.0 | 0.00 | 0.00 | 0.00 | 89 | 1015.9 |
| 20260507102352 | 56 | 188 | 0.0 | 1.0 | 0.00 | 0.00 | 0.00 | 89 | 1015.9 |
| 20260507101352 | 56 | 188 | 0.0 | 1.0 | 0.00 | 0.00 | 0.00 | 89 | 1015.9 |
| 20260507100852 | 56 | 188 | 0.0 | 1.0 | 0.00 | 0.00 | 0.00 | 89 | 1016.0 |
| 20260507100352 | 56 | 188 | 1.0 | 2.0 | 0.00 | 0.00 | 0.00 | 89 | 1016.0 |
| 20260507095852 | 56 | 188 | 1.0 | 2.0 | 0.00 | 0.00 | 0.00 | 89 | 1016.0 |
| 20260507095353 | 57 | 188 | 1.0 | 2.0 | 0.00 | 0.00 | 0.00 | 90 | 1016.0 |
| 20260507094853 | 56 | 188 | 1.0 | 2.0 | 0.00 | 0.00 | 0.00 | 90 | 1016.0 |
| 20260507094352 | 56 | 188 | 0.0 | 1.0 | 0.00 | 0.00 | 0.00 | 90 | 1016.0 |
| 20260507092852 | 57 | 188 | 0.0 | 2.0 | 0.00 | 0.00 | 0.00 | 90 | 1016.2 |
| 20260507092352 | 57 | 187 | 1.0 | 2.0 | 0.00 | 0.00 | 0.00 | 90 | 1016.3 |
| 20260507091352 | 57 | 233 | 0.0 | 0.0 | 0.00 | 0.00 | 0.00 | 90 | 1016.3 |
| 20260507090853 | 57 | 233 | 0.0 | 0.0 | 0.00 | 0.00 | 0.00 | 90 | 1016.4 |
| 20260507090352 | 57 | 233 | 0.0 | 0.0 | 0.00 | 0.00 | 0.00 | 90 | 1016.4 |
| 20260507085853 | 57 | 233 | 0.0 | 0.0 | 0.00 | 0.00 | 0.00 | 90 | 1016.4 |
| 20260507085352 | 58 | 233 | 0.0 | 0.0 | 0.00 | 0.00 | 0.00 | 90 | 1016.5 |
| 20260507084852 | 58 | 233 | 0.0 | 0.0 | 0.00 | 0.00 | 0.00 | 90 | 1016.5 |
| 20260507084352 | 58 | 233 | 0.0 | 0.0 | 0.00 | 0.00 | 0.00 | 90 | 1016.5 |
| 20260507083853 | 58 | 233 | 0.0 | 1.0 | 0.00 | 0.00 | 0.00 | 90 | 1016.6 |
| 20260507083352 | 58 | 233 | 0.0 | 1.0 | 0.00 | 0.00 | 0.00 | 90 | 1016.6 |
| 20260507082852 | 58 | 233 | 0.0 | 2.0 | 0.00 | 0.00 | 0.00 | 90 | 1016.6 |
| 20260507082352 | 58 | 238 | 1.0 | 3.0 | 0.00 | 0.00 | 0.00 | 90 | 1016.6 |
| 20260507081852 | 58 | 259 | 1.0 | 3.0 | 0.00 | 0.00 | 0.00 | 90 | 1016.6 |
| 20260507081352 | 58 | 204 | 0.0 | 1.0 | 0.00 | 0.00 | 0.00 | 90 | 1016.7 |
| 20260507080852 | 58 | 203 | 0.0 | 2.0 | 0.00 | 0.00 | 0.00 | 90 | 1016.6 |
| 20260507080352 | 58 | 228 | 1.0 | 3.0 | 0.00 | 0.00 | 0.00 | 89 | 1016.6 |
| 20260507075853 | 59 | 288 | 2.0 | 3.0 | 0.00 | 0.00 | 0.00 | 89 | 1016.7 |
| 20260507074852 | 59 | 301 | 2.0 | 5.0 | 0.00 | 0.00 | 0.00 | 89 | 1016.8 |
| 20260507074352 | 59 | 298 | 2.0 | 3.0 | 0.00 | 0.00 | 0.00 | 88 | 1016.8 |
| 20260507073352 | 59 | 318 | 2.0 | 8.0 | 0.00 | 0.00 | 0.00 | 88 | 1016.9 |
| 20260507072852 | 59 | 322 | 3.0 | 8.0 | 0.00 | 0.00 | 0.00 | 88 | 1016.9 |
| 20260507072352 | 59 | 350 | 5.0 | 10.0 | 0.00 | 0.00 | 0.00 | 88 | 1016.9 |
| 20260507071852 | 59 | 330 | 4.0 | 9.0 | 0.00 | 0.00 | 0.00 | 88 | 1016.9 |
| 20260507070852 | 59 | 345 | 5.0 | 9.0 | 0.00 | 0.00 | 0.00 | 88 | 1017.0 |
| 20260507070352 | 59 | 293 | 5.0 | 10.0 | 0.00 | 0.00 | 0.00 | 88 | 1017.0 |
| 20260507065852 | 59 | 324 | 3.0 | 9.0 | 0.00 | 0.00 | 0.00 | 89 | 1017.0 |
| 20260507065352 | 59 | 314 | 4.0 | 9.0 | 0.00 | 0.00 | 0.00 | 90 | 1017.0 |
| 20260507064352 | 59 | 318 | 3.0 | 6.0 | 0.00 | 0.00 | 0.00 | 90 | 1017.0 |
| 20260507063852 | 59 | 306 | 1.0 | 3.0 | 0.00 | 0.00 | 0.00 | 90 | 1017.0 |
| 20260507063352 | 59 | 331 | 2.0 | 3.0 | 0.00 | 0.00 | 0.00 | 90 | 1017.1 |
| 20260507062852 | 59 | 253 | 2.0 | 3.0 | 0.00 | 0.00 | 0.00 | 90 | 1017.1 |
| 20260507062352 | 59 | 294 | 2.0 | 3.0 | 0.00 | 0.00 | 0.00 | 90 | 1017.1 |
| 20260507061852 | 59 | 323 | 2.0 | 3.0 | 0.00 | 0.00 | 0.00 | 90 | 1017.1 |
| 20260507061351 | 59 | 337 | 3.0 | 6.0 | 0.00 | 0.00 | 0.00 | 90 | 1017.1 |
| 20260507060853 | 59 | 315 | 2.0 | 5.0 | 0.00 | 0.00 | 0.00 | 90 | 1017.1 |
| 20260507060352 | 59 | 337 | 3.0 | 8.0 | 0.00 | 0.00 | 0.00 | 90 | 1017.1 |
| 20260507055852 | 59 | 342 | 5.0 | 9.0 | 0.00 | 0.00 | 0.00 | 90 | 1017.2 |
| 20260507055352 | 59 | 338 | 4.0 | 9.0 | 0.00 | 0.00 | 0.00 | 90 | 1017.2 |
| 20260507054852 | 59 | 330 | 3.0 | 9.0 | 0.00 | 0.00 | 0.00 | 90 | 1017.1 |
| 20260507054352 | 59 | 336 | 3.0 | 8.0 | 0.00 | 0.00 | 0.00 | 90 | 1017.2 |
| 20260507053852 | 59 | 343 | 4.0 | 8.0 | 0.00 | 0.00 | 0.00 | 90 | 1017.2 |
| 20260507053352 | 59 | 328 | 3.0 | 6.0 | 0.00 | 0.00 | 0.00 | 90 | 1017.2 |
| 20260507052853 | 59 | 323 | 3.0 | 8.0 | 0.00 | 0.00 | 0.00 | 90 | 1017.2 |
| 20260507052352 | 59 | 327 | 3.0 | 8.0 | 0.00 | 0.00 | 0.00 | 89 | 1017.3 |
| 20260507051851 | 59 | 337 | 3.0 | 10.0 | 0.00 | 0.00 | 0.00 | 89 | 1017.2 |
| 20260507051352 | 59 | 317 | 5.0 | 9.0 | 0.00 | 0.00 | 0.00 | 89 | 1017.2 |
| 20260507050852 | 59 | 332 | 3.0 | 8.0 | 0.00 | 0.00 | 0.00 | 89 | 1017.3 |
| 20260507050352 | 59 | 331 | 3.0 | 6.0 | 0.00 | 0.00 | 0.00 | 89 | 1017.2 |
| 20260507045852 | 59 | 347 | 4.0 | 8.0 | 0.00 | 0.00 | 0.00 | 89 | 1017.2 |
| 20260507045351 | 59 | 325 | 3.0 | 8.0 | 0.00 | 0.00 | 0.00 | 88 | 1017.2 |
| 20260507044352 | 60 | 308 | 3.0 | 8.0 | 0.00 | 0.00 | 0.00 | 89 | 1017.1 |
| 20260507043852 | 60 | 315 | 2.0 | 5.0 | 0.00 | 0.00 | 0.00 | 89 | 1017.1 |
| 20260507043352 | 60 | 301 | 2.0 | 7.0 | 0.00 | 0.00 | 0.00 | 89 | 1017.0 |
| 20260507042352 | 60 | 246 | 2.0 | 6.0 | 0.00 | 0.00 | 0.00 | 89 | 1017.0 |
| 20260507041852 | 60 | 251 | 3.0 | 7.0 | 0.00 | 0.00 | 0.00 | 88 | 1017.0 |
| 20260507041353 | 60 | 319 | 3.0 | 7.0 | 0.00 | 0.00 | 0.00 | 88 | 1017.0 |
| 20260507040353 | 60 | 299 | 3.0 | 6.0 | 0.00 | 0.00 | 0.00 | 88 | 1016.9 |
| 20260507035853 | 60 | 340 | 4.0 | 9.0 | 0.00 | 0.00 | 0.00 | 89 | 1016.9 |
| 20260507035352 | 60 | 316 | 4.0 | 8.0 | 0.00 | 0.00 | 0.00 | 88 | 1016.8 |
| 20260507034852 | 60 | 313 | 3.0 | 7.0 | 0.00 | 0.00 | 0.00 | 88 | 1016.7 |
| 20260507034352 | 60 | 296 | 2.0 | 6.0 | 0.00 | 0.00 | 0.00 | 88 | 1016.7 |
| 20260507033852 | 60 | 302 | 3.0 | 8.0 | 0.00 | 0.00 | 0.00 | 88 | 1016.7 |
| 20260507033352 | 60 | 318 | 2.0 | 5.0 | 0.00 | 0.00 | 0.00 | 88 | 1016.5 |
| 20260507032351 | 60 | 283 | 2.0 | 8.0 | 0.00 | 0.00 | 0.00 | 87 | 1016.6 |
| 20260507031352 | 60 | 328 | 6.0 | 9.0 | 0.00 | 0.00 | 0.00 | 88 | 1016.4 |
| 20260507030852 | 60 | 314 | 3.0 | 9.0 | 0.00 | 0.00 | 0.00 | 88 | 1016.4 |
| 20260507030352 | 60 | 283 | 6.0 | 10.0 | 0.00 | 0.00 | 0.00 | 88 | 1016.4 |
| 20260507025852 | 60 | 323 | 5.0 | 10.0 | 0.00 | 0.00 | 0.00 | 87 | 1016.3 |
| 20260507025352 | 61 | 274 | 6.0 | 9.0 | 0.00 | 0.00 | 0.00 | 87 | 1016.3 |
| 20260507024852 | 61 | 288 | 4.0 | 10.0 | 0.00 | 0.00 | 0.00 | 86 | 1016.3 |
| 20260507024352 | 61 | 276 | 7.0 | 12.0 | 0.00 | 0.00 | 0.00 | 85 | 1016.3 |
| 20260507023352 | 61 | 270 | 6.0 | 12.0 | 0.00 | 0.00 | 0.00 | 84 | 1016.1 |